| time (UTC) | temp F | wind direction | speed knots | gust knots | rain 1hr in | rain 24hr in | rain mn in | humidity % | barometer mb |
| 20260902073046 | 33 | 40 | 0.0 | 0.0 | 0.00 | 0.00 | 0.00 | 82 | 1009.3 |
| 20260902071557 | 34 | 40 | 0.0 | 0.0 | 0.00 | 0.00 | 0.00 | 86 | 1009.3 |
| 20260902070052 | 34 | 40 | 0.0 | 0.0 | 0.00 | 0.00 | 0.00 | 86 | 1009.1 |
| 20260902064508 | 34 | 40 | 0.0 | 0.0 | 0.00 | 0.00 | 0.00 | 81 | 1009.0 |
| 20260902063056 | 35 | 40 | 0.0 | 0.0 | 0.00 | 0.00 | 0.00 | 79 | 1009.0 |
| 20260902061555 | 38 | 40 | 0.0 | 0.0 | 0.00 | 0.00 | 0.00 | 76 | 1008.7 |
| 20260902060039 | 39 | 40 | 0.0 | 0.0 | 0.00 | 0.00 | 0.00 | 79 | 1008.8 |
| 20260902054607 | 38 | 40 | 0.0 | 0.0 | 0.00 | 0.00 | 0.00 | 77 | 1008.8 |
| 20260902053100 | 41 | 40 | 0.0 | 0.0 | 0.00 | 0.00 | 0.00 | 74 | 1008.7 |
| 20260902051544 | 42 | 40 | 0.0 | 0.0 | 0.00 | 0.00 | 0.00 | 72 | 1008.7 |
| 20260902050108 | 44 | 40 | 0.0 | 0.0 | 0.00 | 0.00 | 0.00 | 70 | 1008.8 |
| 20260902044553 | 48 | 40 | 0.0 | 0.0 | 0.00 | 0.00 | 0.00 | 65 | 1008.7 |
| 20260902043052 | 51 | 40 | 0.0 | 0.0 | 0.00 | 0.00 | 0.00 | 60 | 1008.6 |
| 20260902041601 | 53 | 40 | 0.0 | 0.0 | 0.00 | 0.00 | 0.00 | 56 | 1008.6 |
| 20260902040053 | 54 | 40 | 0.0 | 0.0 | 0.00 | 0.00 | 0.00 | 55 | 1008.6 |
| 20260902034547 | 56 | 103 | 0.0 | 0.0 | 0.00 | 0.00 | 0.00 | 53 | 1008.6 |
| 20260902033044 | 57 | 103 | 0.0 | 0.0 | 0.00 | 0.00 | 0.00 | 53 | 1008.5 |
| 20260902031553 | 58 | 116 | 0.0 | 0.9 | 0.00 | 0.00 | 0.00 | 48 | 1008.5 |
| 20260902030044 | 58 | 320 | 0.0 | 1.7 | 0.00 | 0.00 | 0.00 | 46 | 1008.6 |
| 20260902024502 | 58 | 284 | 0.0 | 1.7 | 0.00 | 0.00 | 0.00 | 49 | 1008.7 |
| 20260902023100 | 57 | 5 | 0.0 | 0.0 | 0.00 | 0.00 | 0.00 | 53 | 1008.6 |
| 20260902021550 | 56 | 5 | 0.0 | 1.7 | 0.00 | 0.00 | 0.00 | 53 | 1008.6 |
| 20260902020059 | 56 | 2 | 0.0 | 1.7 | 0.00 | 0.00 | 0.00 | 52 | 1008.7 |
| 20260902014557 | 57 | 43 | 0.0 | 2.6 | 0.00 | 0.00 | 0.00 | 50 | 1008.6 |
| 20260902013047 | 58 | 122 | 1.7 | 6.1 | 0.00 | 0.00 | 0.00 | 47 | 1008.5 |
| 20260902011502 | 57 | 356 | 0.0 | 4.3 | 0.00 | 0.00 | 0.00 | 49 | 1008.6 |
| 20260902010053 | 57 | 53 | 1.7 | 4.3 | 0.00 | 0.00 | 0.00 | 49 | 1008.6 |
| 20260902004550 | 57 | 60 | 1.7 | 3.5 | 0.00 | 0.00 | 0.00 | 49 | 1008.7 |
| 20260902003108 | 57 | 8 | 1.7 | 5.2 | 0.00 | 0.00 | 0.00 | 50 | 1008.7 |
| 20260902001557 | 57 | 347 | 0.9 | 7.0 | 0.00 | 0.00 | 0.00 | 49 | 1008.7 |
| 20260902000050 | 57 | 111 | 1.7 | 6.1 | 0.00 | 0.00 | 0.00 | 49 | 1008.7 |
| 20260901234503 | 58 | 39 | 1.7 | 7.0 | 0.00 | 0.00 | 0.00 | 48 | 1008.7 |
| 20260901233054 | 59 | 94 | 1.7 | 6.1 | 0.00 | 0.00 | 0.00 | 46 | 1008.6 |
| 20260901231608 | 58 | 335 | 3.5 | 7.8 | 0.00 | 0.00 | 0.00 | 49 | 1008.8 |
| 20260901230001 | 57 | 347 | 2.6 | 7.0 | 0.00 | 0.00 | 0.00 | 51 | 1009.0 |
| 20260901224559 | 56 | 2 | 1.7 | 8.7 | 0.00 | 0.00 | 0.00 | 52 | 1009.1 |
| 20260901223050 | 57 | 34 | 3.5 | 7.8 | 0.00 | 0.00 | 0.00 | 51 | 1008.9 |
| 20260901221608 | 58 | 51 | 3.5 | 7.0 | 0.00 | 0.00 | 0.00 | 46 | 1009.0 |
| 20260901220121 | 58 | 26 | 3.5 | 12.2 | 0.00 | 0.00 | 0.00 | 47 | 1009.1 |
| 20260901214554 | 57 | 145 | 3.5 | 7.8 | 0.00 | 0.00 | 0.00 | 50 | 1009.2 |
| 20260901213100 | 57 | 39 | 5.2 | 14.8 | 0.00 | 0.00 | 0.00 | 50 | 1009.4 |
| 20260901211501 | 57 | 49 | 2.6 | 10.4 | 0.00 | 0.00 | 0.00 | 52 | 1009.3 |
| 20260901210051 | 58 | 349 | 3.5 | 9.6 | 0.00 | 0.00 | 0.00 | 54 | 1009.4 |
| 20260901204513 | 56 | 28 | 5.2 | 13.9 | 0.00 | 0.00 | 0.00 | 56 | 1009.5 |
| 20260901203102 | 56 | 32 | 4.3 | 11.3 | 0.00 | 0.00 | 0.00 | 55 | 1009.7 |
| 20260901201557 | 55 | 29 | 5.2 | 12.2 | 0.00 | 0.00 | 0.00 | 54 | 1009.6 |
| 20260901200111 | 56 | 317 | 2.6 | 10.4 | 0.00 | 0.00 | 0.00 | 55 | 1009.7 |
| 20260901194501 | 55 | 108 | 5.2 | 11.3 | 0.00 | 0.00 | 0.00 | 55 | 1009.8 |
| 20260901193054 | 55 | 65 | 4.3 | 13.0 | 0.00 | 0.00 | 0.00 | 56 | 1009.8 |
| 20260901191623 | 54 | 308 | 2.6 | 13.0 | 0.00 | 0.00 | 0.00 | 61 | 1010.0 |
| 20260901190040 | 53 | 65 | 5.2 | 13.0 | 0.00 | 0.00 | 0.00 | 62 | 1010.0 |
| 20260901184557 | 53 | 89 | 2.6 | 7.8 | 0.00 | 0.00 | 0.00 | 65 | 1010.1 |
| 20260901183055 | 51 | 104 | 5.2 | 11.3 | 0.00 | 0.00 | 0.00 | 67 | 1010.2 |
| 20260901181551 | 51 | 83 | 5.2 | 11.3 | 0.00 | 0.00 | 0.00 | 64 | 1010.2 |
| 20260901180057 | 51 | 34 | 1.7 | 8.7 | 0.00 | 0.00 | 0.00 | 68 | 1010.3 |
| 20260901174556 | 50 | 41 | 2.6 | 11.3 | 0.00 | 0.00 | 0.00 | 68 | 1010.3 |
| 20260901173044 | 49 | 20 | 5.2 | 11.3 | 0.00 | 0.00 | 0.00 | 68 | 1010.1 |
| 20260901171604 | 48 | 30 | 2.6 | 12.2 | 0.00 | 0.00 | 0.00 | 71 | 1010.2 |
| 20260901170056 | 46 | 1 | 3.5 | 9.6 | 0.00 | 0.00 | 0.00 | 72 | 1010.3 |
| 20260901164502 | 45 | 36 | 4.3 | 9.6 | 0.00 | 0.00 | 0.00 | 73 | 1010.3 |
| 20260901163056 | 44 | 54 | 0.9 | 6.1 | 0.00 | 0.00 | 0.00 | 76 | 1010.3 |
| 20260901161553 | 43 | 23 | 2.6 | 7.8 | 0.00 | 0.00 | 0.00 | 77 | 1010.3 |
| 20260901160001 | 42 | 317 | 1.7 | 8.7 | 0.00 | 0.00 | 0.00 | 79 | 1010.0 |
| 20260901154557 | 40 | 338 | 3.5 | 10.4 | 0.00 | 0.00 | 0.00 | 81 | 1010.1 |
| 20260901153059 | 40 | 31 | 1.7 | 9.6 | 0.00 | 0.00 | 0.00 | 82 | 1010.0 |
| 20260901151600 | 38 | 327 | 2.6 | 7.8 | 0.00 | 0.00 | 0.00 | 85 | 1009.9 |
| 20260901150107 | 37 | 328 | 2.6 | 6.1 | 0.00 | 0.00 | 0.00 | 85 | 1009.7 |
| 20260901144550 | 37 | 77 | 2.6 | 7.0 | 0.00 | 0.00 | 0.00 | 86 | 1009.8 |
| 20260901143114 | 37 | 45 | 1.7 | 8.7 | 0.00 | 0.00 | 0.00 | 85 | 1009.8 |
| 20260901141606 | 36 | 31 | 2.6 | 7.0 | 0.00 | 0.00 | 0.00 | 86 | 1009.8 |
| 20260901140124 | 37 | 336 | 0.9 | 6.1 | 0.00 | 0.00 | 0.00 | 86 | 1009.8 |
| 20260901134557 | 37 | 44 | 1.7 | 5.2 | 0.00 | 0.00 | 0.00 | 85 | 1009.9 |
| 20260901133052 | 37 | 31 | 2.6 | 6.1 | 0.00 | 0.00 | 0.00 | 86 | 1009.8 |
| 20260901131508 | 37 | 342 | 2.6 | 6.1 | 0.00 | 0.00 | 0.00 | 85 | 1009.7 |
| 20260901130059 | 37 | 293 | 1.7 | 5.2 | 0.00 | 0.00 | 0.00 | 84 | 1009.7 |
| 20260901124556 | 38 | 326 | 3.5 | 7.0 | 0.00 | 0.01 | 0.00 | 84 | 1009.8 |
| 20260901123044 | 37 | 317 | 1.7 | 7.0 | 0.00 | 0.01 | 0.00 | 84 | 1009.6 |
| 20260901121607 | 37 | 333 | 1.7 | 6.1 | 0.00 | 0.01 | 0.00 | 83 | 1009.6 |
| 20260901120048 | 37 | 354 | 1.7 | 7.8 | 0.00 | 0.01 | 0.00 | 83 | 1009.5 |
| 20260901114507 | 37 | 330 | 1.7 | 7.8 | 0.00 | 0.03 | 0.00 | 83 | 1009.6 |
| 20260901113103 | 37 | 4 | 2.6 | 7.8 | 0.00 | 0.03 | 0.00 | 83 | 1009.3 |
| 20260901111654 | 37 | 323 | 3.5 | 7.8 | 0.00 | 0.03 | 0.00 | 83 | 1009.4 |
| 20260901110043 | 37 | 250 | 1.7 | 7.8 | 0.00 | 0.03 | 0.00 | 83 | 1009.2 |
| 20260901104604 | 38 | 346 | 1.7 | 4.3 | 0.00 | 0.06 | 0.00 | 82 | 1008.9 |
| 20260901103051 | 38 | 311 | 2.6 | 6.1 | 0.00 | 0.06 | 0.00 | 82 | 1008.5 |
| 20260901101601 | 39 | 299 | 1.7 | 5.2 | 0.00 | 0.06 | 0.00 | 80 | 1008.5 |
| 20260901100159 | 40 | 346 | 2.6 | 7.8 | 0.00 | 0.06 | 0.00 | 79 | 1008.3 |
| 20260901094552 | 40 | 360 | 2.6 | 8.7 | 0.00 | 0.08 | 0.00 | 78 | 1008.4 |
| 20260901093047 | 40 | 358 | 3.5 | 10.4 | 0.00 | 0.08 | 0.00 | 79 | 1008.3 |
| 20260901091601 | 40 | 26 | 2.6 | 8.7 | 0.00 | 0.08 | 0.00 | 79 | 1007.9 |
| 20260901090050 | 40 | 285 | 3.5 | 7.0 | 0.00 | 0.08 | 0.00 | 80 | 1007.8 |
| 20260901084551 | 40 | 359 | 2.6 | 7.0 | 0.00 | 0.09 | 0.00 | 79 | 1007.7 |
| 20260901083058 | 41 | 335 | 1.7 | 6.1 | 0.00 | 0.09 | 0.00 | 78 | 1007.6 |
| 20260901081559 | 41 | 39 | 1.7 | 7.8 | 0.00 | 0.09 | 0.00 | 78 | 1007.5 |
| 20260901080217 | 41 | 319 | 3.5 | 8.7 | 0.00 | 0.09 | 0.00 | 78 | 1007.2 |
| 20260901074500 | 41 | 29 | 2.6 | 13.0 | 0.00 | 0.12 | 0.09 | 77 | 1007.2 |